TimeEST,TemperatureF,Dew PointF,Humidity,Sea Level PressureIn,VisibilityMPH,Wind Direction,Wind SpeedMPH,Gust SpeedMPH,PrecipitationIn,Events,Conditions,WindDirDegrees,DateUTC
12:53 AM,63.0,39.0,41,30.19,10.0,South,16.1,25.3,N/A,,Clear,180,2012-11-12 05:53:00
1:53 AM,63.0,42.1,46,30.18,10.0,South,18.4,25.3,N/A,,Clear,180,2012-11-12 06:53:00
2:53 AM,62.1,44.1,52,30.19,10.0,South,16.1,23.0,N/A,,Clear,190,2012-11-12 07:53:00
3:53 AM,62.1,45.0,53,30.18,10.0,South,15.0,-,N/A,,Clear,180,2012-11-12 08:53:00
4:53 AM,62.1,46.0,56,30.17,10.0,South,13.8,-,N/A,,Clear,180,2012-11-12 09:53:00
5:53 AM,61.0,46.0,58,30.17,10.0,South,12.7,-,N/A,,Clear,180,2012-11-12 10:53:00
6:53 AM,61.0,46.0,58,30.15,10.0,SSE,11.5,-,N/A,,Clear,160,2012-11-12 11:53:00
7:53 AM,61.0,46.9,60,30.15,10.0,SSE,13.8,20.7,N/A,,Clear,160,2012-11-12 12:53:00
8:53 AM,64.0,48.0,56,30.13,10.0,South,20.7,31.1,N/A,,Clear,180,2012-11-12 13:53:00
9:53 AM,68.0,48.0,49,30.12,10.0,South,23.0,39.1,N/A,,Clear,190,2012-11-12 14:53:00
10:53 AM,68.0,48.0,49,30.11,10.0,South,23.0,39.1,N/A,,Clear,190,2012-11-12 15:53:00
11:53 AM,70.0,46.9,44,30.05,10.0,South,26.5,35.7,N/A,,Clear,190,2012-11-12 16:53:00
12:53 PM,69.1,45.0,42,30.03,10.0,South,23.0,29.9,N/A,,Mostly Cloudy,180,2012-11-12 17:53:00
1:53 PM,69.1,45.0,42,29.98,10.0,South,15.0,26.5,N/A,,Mostly Cloudy,190,2012-11-12 18:53:00
2:53 PM,69.1,45.0,42,29.96,10.0,SSW,15.0,35.7,N/A,,Overcast,200,2012-11-12 19:53:00
3:45 PM,59.0,53.6,82,30.01,6.0,WSW,18.4,32.2,0.00,Rain,Light Rain,250,2012-11-12 20:45:00
3:53 PM,59.0,54.0,83,30.02,10.0,West,12.7,25.3,0.00,Rain,Light Rain,270,2012-11-12 20:53:00
4:11 PM,57.2,53.6,88,30.04,5.0,West,20.7,28.8,0.01,Rain,Light Rain,260,2012-11-12 21:11:00
4:17 PM,53.6,51.8,94,30.06,2.5,West,20.7,34.5,0.02,Rain,Light Rain,260,2012-11-12 21:17:00
4:26 PM,51.8,48.2,88,30.07,4.0,West,17.3,28.8,0.02,Rain,Light Rain,280,2012-11-12 21:26:00
4:53 PM,51.1,48.9,92,30.09,5.0,West,13.8,-,0.03,Rain,Light Rain,280,2012-11-12 21:53:00
5:05 PM,50.0,48.2,94,30.08,3.0,WNW,21.9,28.8,0.01,Rain,Rain,290,2012-11-12 22:05:00
5:12 PM,50.0,46.4,87,30.09,2.5,West,18.4,28.8,0.02,Rain,Light Rain,280,2012-11-12 22:12:00
5:25 PM,48.2,46.4,93,30.11,2.5,West,17.3,25.3,0.05,Rain,Rain,270,2012-11-12 22:25:00
5:34 PM,48.2,46.4,93,30.12,2.5,West,18.4,28.8,0.07,Rain,Rain,270,2012-11-12 22:34:00
5:51 PM,46.4,44.6,93,30.16,4.0,West,12.7,32.2,0.10,Rain,Light Rain,280,2012-11-12 22:51:00
5:52 PM,46.0,44.1,93,30.17,5.0,West,12.7,28.8,0.11,Rain,Light Rain,280,2012-11-12 22:52:00
6:00 PM,44.6,42.8,93,30.16,5.0,West,18.4,34.5,0.01,Rain,Rain,280,2012-11-12 23:00:00
6:53 PM,42.1,39.0,89,30.23,6.0,West,17.3,31.1,0.04,Rain,Light Rain,280,2012-11-12 23:53:00
7:09 PM,42.8,39.2,87,30.24,5.0,West,16.1,24.2,0.01,Rain,Light Rain,270,2012-11-13 00:09:00
7:37 PM,39.2,37.4,93,30.24,9.0,West,13.8,20.7,0.02,Rain,Light Rain,260,2012-11-13 00:37:00
7:53 PM,39.9,37.0,89,30.27,10.0,West,11.5,-,0.02,Rain,Light Rain,260,2012-11-13 00:53:00
8:09 PM,39.2,37.4,93,30.25,5.0,West,11.5,21.9,0.01,Rain,Light Rain,260,2012-11-13 01:09:00
8:41 PM,37.4,35.6,93,30.28,10.0,WSW,11.5,18.4,0.03,Rain,Light Rain,250,2012-11-13 01:41:00
8:53 PM,37.9,34.0,86,30.29,10.0,WSW,9.2,18.4,0.03,,Overcast,250,2012-11-13 01:53:00
9:53 PM,37.0,34.0,89,30.31,10.0,SW,5.8,-,0.00,,Overcast,220,2012-11-13 02:53:00
10:02 PM,37.4,35.6,93,30.30,10.0,SSW,6.9,-,N/A,,Overcast,210,2012-11-13 03:02:00
10:36 PM,37.4,33.8,87,30.32,10.0,WSW,10.4,-,N/A,,Overcast,240,2012-11-13 03:36:00
10:53 PM,37.0,30.0,76,30.34,10.0,West,19.6,29.9,N/A,,Mostly Cloudy,260,2012-11-13 03:53:00
11:53 PM,34.0,28.9,82,30.37,10.0,West,8.1,-,N/A,,Partly Cloudy,270,2012-11-13 04:53:00